| time (UTC) | temp C | wind direction | speed KPH | gust KPH | rain 1hr cm | rain 24hr cm | rain mn cm | humidity % | barometer mb |
| 20260509101547 | 21 | 0 | 1.6 | 8.0 | 0.00 | 0.25 | 0.00 | 89 | 1008.8 |
| 20260509101038 | 21 | 153 | 1.6 | 8.0 | 0.00 | 0.25 | 0.00 | 89 | 1008.8 |
| 20260509100538 | 21 | 134 | 0.0 | 8.0 | 0.00 | 0.25 | 0.00 | 89 | 1008.9 |
| 20260509100049 | 21 | 122 | 3.2 | 8.0 | 0.00 | 0.25 | 0.00 | 89 | 1008.7 |
| 20260509095538 | 21 | 179 | 1.6 | 6.4 | 0.00 | 0.25 | 0.00 | 89 | 1008.6 |
| 20260509095039 | 21 | 142 | 1.6 | 6.4 | 0.00 | 0.25 | 0.00 | 89 | 1008.5 |
| 20260509094547 | 21 | 131 | 3.2 | 6.4 | 0.00 | 0.25 | 0.00 | 89 | 1008.5 |
| 20260509094035 | 21 | 69 | 1.6 | 4.8 | 0.00 | 0.25 | 0.00 | 89 | 1008.5 |
| 20260509093535 | 21 | 137 | 0.0 | 4.8 | 0.00 | 0.25 | 0.00 | 89 | 1008.4 |
| 20260509093050 | 21 | 134 | 1.6 | 4.8 | 0.00 | 0.25 | 0.00 | 88 | 1008.3 |
| 20260509092541 | 21 | 0 | 0.0 | 1.6 | 0.00 | 0.25 | 0.00 | 88 | 1008.2 |
| 20260509092035 | 21 | 0 | 0.0 | 9.7 | 0.00 | 0.25 | 0.00 | 88 | 1008.4 |
| 20260509091547 | 21 | 0 | 0.0 | 9.7 | 0.00 | 0.25 | 0.00 | 88 | 1008.6 |
| 20260509091038 | 21 | 118 | 1.6 | 6.4 | 0.00 | 0.25 | 0.00 | 88 | 1008.6 |
| 20260509090539 | 21 | 46 | 0.0 | 9.7 | 0.00 | 0.25 | 0.00 | 88 | 1008.8 |
| 20260509090054 | 21 | 5 | 4.8 | 12.9 | 0.00 | 0.25 | 0.00 | 88 | 1009.0 |
| 20260509085538 | 21 | 349 | 8.0 | 12.9 | 0.00 | 0.33 | 0.00 | 88 | 1008.7 |
| 20260509085038 | 21 | 297 | 3.2 | 16.1 | 0.00 | 0.33 | 0.00 | 88 | 1008.1 |
| 20260509084547 | 21 | 0 | 3.2 | 17.7 | 0.00 | 0.33 | 0.00 | 88 | 1007.5 |
| 20260509084036 | 21 | 123 | 11.3 | 25.7 | 0.00 | 0.33 | 0.00 | 88 | 1006.9 |
| 20260509083538 | 21 | 123 | 11.3 | 25.7 | 0.00 | 0.33 | 0.00 | 88 | 1006.7 |
| 20260509083050 | 21 | 148 | 14.5 | 30.6 | 0.00 | 0.33 | 0.00 | 89 | 1006.8 |
| 20260509082537 | 21 | 178 | 14.5 | 33.8 | 0.00 | 0.33 | 0.00 | 89 | 1006.7 |
| 20260509082038 | 21 | 155 | 14.5 | 33.8 | 0.00 | 0.33 | 0.00 | 89 | 1007.0 |
| 20260509081554 | 21 | 146 | 14.5 | 27.4 | 0.00 | 0.33 | 0.00 | 89 | 1007.1 |
| 20260509081038 | 21 | 157 | 17.7 | 29.0 | 0.00 | 0.33 | 0.00 | 89 | 1007.2 |
| 20260509080537 | 21 | 150 | 16.1 | 29.0 | 0.00 | 0.33 | 0.00 | 89 | 1007.5 |
| 20260509080047 | 21 | 175 | 12.9 | 24.1 | 0.00 | 0.33 | 0.00 | 89 | 1008.0 |
| 20260509075537 | 21 | 194 | 12.9 | 24.1 | 0.00 | 0.43 | 0.00 | 89 | 1008.1 |
| 20260509075040 | 21 | 148 | 12.9 | 24.1 | 0.00 | 0.43 | 0.00 | 89 | 1008.5 |
| 20260509074547 | 21 | 186 | 14.5 | 24.1 | 0.00 | 0.43 | 0.00 | 89 | 1008.9 |
| 20260509074037 | 21 | 182 | 14.5 | 24.1 | 0.00 | 0.43 | 0.00 | 89 | 1009.2 |
| 20260509073535 | 21 | 188 | 12.9 | 24.1 | 0.00 | 0.43 | 0.00 | 89 | 1009.3 |
| 20260509073050 | 21 | 188 | 14.5 | 27.4 | 0.00 | 0.43 | 0.00 | 89 | 1009.4 |
| 20260509072537 | 21 | 191 | 16.1 | 29.0 | 0.00 | 0.43 | 0.00 | 89 | 1009.6 |
| 20260509072038 | 21 | 173 | 17.7 | 29.0 | 0.00 | 0.43 | 0.00 | 89 | 1009.7 |
| 20260509071552 | 21 | 188 | 16.1 | 22.5 | 0.00 | 0.43 | 0.00 | 89 | 1010.0 |
| 20260509071038 | 21 | 194 | 12.9 | 19.3 | 0.00 | 0.43 | 0.00 | 89 | 1010.2 |
| 20260509070621 | 21 | 182 | 11.3 | 19.3 | 0.00 | 0.43 | 0.00 | 89 | 1010.0 |
| 20260509070053 | 21 | 178 | 12.9 | 19.3 | 0.00 | 0.43 | 0.00 | 89 | 1010.2 |
| 20260509065537 | 21 | 192 | 12.9 | 16.1 | 0.00 | 0.43 | 0.00 | 89 | 1010.3 |
| 20260509065037 | 21 | 196 | 12.9 | 16.1 | 0.00 | 0.43 | 0.00 | 89 | 1010.4 |
| 20260509064550 | 21 | 200 | 11.3 | 14.5 | 0.00 | 0.43 | 0.00 | 89 | 1010.6 |
| 20260509064038 | 21 | 225 | 11.3 | 16.1 | 0.00 | 0.43 | 0.00 | 89 | 1010.6 |
| 20260509063537 | 21 | 225 | 11.3 | 16.1 | 0.00 | 0.43 | 0.00 | 89 | 1010.7 |
| 20260509063107 | 21 | 235 | 11.3 | 16.1 | 0.00 | 0.43 | 0.00 | 89 | 1010.7 |
| 20260509062538 | 21 | 223 | 12.9 | 17.7 | 0.00 | 0.43 | 0.00 | 90 | 1010.6 |
| 20260509062038 | 21 | 217 | 12.9 | 17.7 | 0.00 | 0.43 | 0.00 | 89 | 1010.4 |
| 20260509061609 | 21 | 213 | 14.5 | 17.7 | 0.00 | 0.43 | 0.00 | 89 | 1010.4 |
| 20260509061037 | 21 | 204 | 12.9 | 16.1 | 0.00 | 0.43 | 0.00 | 89 | 1010.4 |
| 20260509060541 | 21 | 200 | 12.9 | 17.7 | 0.00 | 0.43 | 0.00 | 88 | 1010.3 |
| 20260509060057 | 21 | 193 | 14.5 | 17.7 | 0.00 | 0.43 | 0.00 | 89 | 1010.2 |
| 20260509055538 | 21 | 194 | 11.3 | 16.1 | 0.00 | 0.43 | 0.00 | 89 | 1010.2 |
| 20260509055039 | 21 | 193 | 11.3 | 16.1 | 0.00 | 0.43 | 0.00 | 89 | 1010.3 |
| 20260509054549 | 21 | 190 | 11.3 | 16.1 | 0.00 | 0.43 | 0.00 | 89 | 1010.2 |
| 20260509054037 | 21 | 161 | 11.3 | 16.1 | 0.00 | 0.43 | 0.00 | 88 | 1010.4 |
| 20260509053537 | 21 | 197 | 4.8 | 8.0 | 0.00 | 0.43 | 0.00 | 88 | 1010.8 |
| 20260509053047 | 21 | 221 | 4.8 | 9.7 | 0.00 | 0.43 | 0.00 | 87 | 1010.9 |
| 20260509052538 | 21 | 236 | 4.8 | 9.7 | 0.00 | 0.43 | 0.00 | 86 | 1010.8 |
| 20260509052038 | 21 | 286 | 6.4 | 8.0 | 0.00 | 0.43 | 0.00 | 86 | 1011.2 |
| 20260509051545 | 21 | 260 | 3.2 | 9.7 | 0.00 | 0.43 | 0.00 | 86 | 1011.1 |
| 20260509051037 | 21 | 301 | 4.8 | 19.3 | 0.00 | 0.43 | 0.00 | 85 | 1011.3 |
| 20260509050537 | 21 | 11 | 8.0 | 20.9 | 0.00 | 0.43 | 0.00 | 86 | 1011.8 |
| 20260509050049 | 21 | 348 | 16.1 | 20.9 | 0.00 | 0.43 | 0.00 | 86 | 1012.2 |
| 20260509045537 | 22 | 348 | 16.1 | 20.9 | 0.00 | 0.43 | 0.43 | 85 | 1012.1 |
| 20260509045039 | 22 | 338 | 6.4 | 14.5 | 0.00 | 0.43 | 0.43 | 86 | 1011.4 |
| 20260509044549 | 22 | 217 | 4.8 | 11.3 | 0.00 | 0.43 | 0.43 | 85 | 1010.7 |
| 20260509044040 | 22 | 198 | 6.4 | 14.5 | 0.00 | 0.43 | 0.43 | 85 | 1010.6 |
| 20260509043537 | 22 | 196 | 9.7 | 14.5 | 0.00 | 0.43 | 0.43 | 84 | 1010.4 |
| 20260509043050 | 22 | 186 | 9.7 | 14.5 | 0.00 | 0.43 | 0.43 | 83 | 1010.4 |
| 20260509042537 | 22 | 171 | 8.0 | 16.1 | 0.00 | 0.43 | 0.43 | 82 | 1010.4 |
| 20260509042037 | 22 | 182 | 8.0 | 16.1 | 0.00 | 0.43 | 0.43 | 82 | 1010.2 |
| 20260509041544 | 22 | 183 | 1.6 | 11.3 | 0.00 | 0.43 | 0.43 | 81 | 1010.4 |
| 20260509041038 | 22 | 141 | 3.2 | 11.3 | 0.00 | 0.43 | 0.43 | 81 | 1010.6 |
| 20260509040537 | 22 | 115 | 6.4 | 17.7 | 0.00 | 0.43 | 0.43 | 81 | 1010.4 |
| 20260509040100 | 22 | 124 | 3.2 | 17.7 | 0.00 | 0.43 | 0.43 | 81 | 1010.3 |
| 20260509035537 | 22 | 146 | 6.4 | 14.5 | 0.00 | 0.43 | 0.43 | 82 | 1010.0 |
| 20260509035041 | 22 | 135 | 8.0 | 17.7 | 0.00 | 0.43 | 0.43 | 82 | 1009.8 |
| 20260509034546 | 22 | 146 | 4.8 | 17.7 | 0.00 | 0.43 | 0.43 | 81 | 1010.0 |
| 20260509034038 | 22 | 114 | 11.3 | 17.7 | 0.00 | 0.43 | 0.43 | 81 | 1009.7 |
| 20260509033537 | 22 | 152 | 9.7 | 17.7 | 0.00 | 0.43 | 0.43 | 81 | 1009.6 |
| 20260509033047 | 22 | 155 | 8.0 | 12.9 | 0.00 | 0.43 | 0.43 | 82 | 1010.0 |
| 20260509032537 | 22 | 155 | 0.0 | 4.8 | 0.00 | 0.43 | 0.43 | 82 | 1010.6 |
| 20260509032037 | 22 | 0 | 0.0 | 4.8 | 0.00 | 0.43 | 0.43 | 82 | 1011.0 |
| 20260509031549 | 22 | 27 | 1.6 | 4.8 | 0.00 | 0.43 | 0.43 | 82 | 1011.0 |
| 20260509031037 | 22 | 23 | 0.0 | 4.8 | 0.00 | 0.43 | 0.43 | 82 | 1011.0 |
| 20260509030537 | 22 | 23 | 1.6 | 6.4 | 0.00 | 0.43 | 0.43 | 81 | 1010.8 |
| 20260509030054 | 22 | 348 | 0.0 | 6.4 | 0.00 | 0.43 | 0.43 | 81 | 1010.7 |
| 20260509025538 | 22 | 5 | 1.6 | 11.3 | 0.00 | 0.43 | 0.43 | 81 | 1010.6 |
| 20260509025040 | 22 | 65 | 0.0 | 11.3 | 0.00 | 0.43 | 0.43 | 81 | 1010.3 |
| 20260509024547 | 22 | 143 | 4.8 | 11.3 | 0.00 | 0.43 | 0.43 | 81 | 1009.9 |
| 20260509024039 | 22 | 143 | 4.8 | 11.3 | 0.00 | 0.43 | 0.43 | 80 | 1009.9 |
| 20260509023537 | 22 | 137 | 3.2 | 12.9 | 0.00 | 0.43 | 0.43 | 80 | 1009.9 |
| 20260509023046 | 22 | 85 | 4.8 | 12.9 | 0.00 | 0.43 | 0.43 | 80 | 1009.6 |
| 20260509022537 | 22 | 121 | 4.8 | 12.9 | 0.00 | 0.43 | 0.43 | 80 | 1009.4 |
| 20260509022038 | 22 | 161 | 6.4 | 14.5 | 0.00 | 0.43 | 0.43 | 81 | 1009.0 |
| 20260509021548 | 22 | 153 | 4.8 | 16.1 | 0.00 | 0.43 | 0.43 | 81 | 1008.8 |
| 20260509021039 | 22 | 202 | 8.0 | 16.1 | 0.00 | 0.43 | 0.43 | 81 | 1008.6 |
| 20260509020537 | 22 | 139 | 8.0 | 16.1 | 0.00 | 0.43 | 0.43 | 81 | 1008.5 |
| 20260509020054 | 22 | 151 | 4.8 | 9.7 | 0.00 | 0.43 | 0.43 | 82 | 1008.7 |
| 20260509015538 | 22 | 151 | 4.8 | 11.3 | 0.00 | 0.43 | 0.43 | 82 | 1008.9 |
| 20260509015038 | 22 | 194 | 6.4 | 11.3 | 0.00 | 0.43 | 0.43 | 82 | 1008.8 |
| 20260509014549 | 22 | 169 | 8.0 | 11.3 | 0.00 | 0.43 | 0.43 | 82 | 1008.7 |
| 20260509014041 | 22 | 186 | 8.0 | 9.7 | 0.00 | 0.43 | 0.43 | 82 | 1008.6 |
| 20260509013537 | 22 | 194 | 6.4 | 9.7 | 0.00 | 0.43 | 0.43 | 83 | 1008.6 |
| 20260509013050 | 22 | 191 | 6.4 | 12.9 | 0.00 | 0.43 | 0.43 | 82 | 1008.6 |
| 20260509012536 | 22 | 178 | 8.0 | 14.5 | 0.00 | 0.43 | 0.43 | 81 | 1008.7 |
| 20260509012037 | 22 | 194 | 8.0 | 14.5 | 0.00 | 0.43 | 0.43 | 81 | 1008.8 |
| 20260509011545 | 22 | 183 | 9.7 | 14.5 | 0.00 | 0.43 | 0.43 | 82 | 1008.9 |
| 20260509011036 | 22 | 183 | 9.7 | 16.1 | 0.00 | 0.43 | 0.43 | 81 | 1008.9 |
| 20260509010538 | 22 | 183 | 9.7 | 16.1 | 0.00 | 0.43 | 0.43 | 81 | 1008.8 |
| 20260509010047 | 22 | 169 | 8.0 | 12.9 | 0.00 | 0.43 | 0.43 | 81 | 1008.9 |
| 20260509005537 | 22 | 154 | 6.4 | 14.5 | 0.00 | 0.43 | 0.43 | 81 | 1008.8 |
| 20260509005036 | 22 | 186 | 8.0 | 14.5 | 0.00 | 0.43 | 0.43 | 80 | 1008.7 |
| 20260509004546 | 22 | 186 | 8.0 | 14.5 | 0.00 | 0.43 | 0.43 | 80 | 1008.7 |
| 20260509004037 | 22 | 187 | 9.7 | 14.5 | 0.00 | 0.43 | 0.43 | 79 | 1008.5 |
| 20260509003537 | 22 | 163 | 6.4 | 14.5 | 0.00 | 0.43 | 0.43 | 78 | 1008.4 |
| 20260509003048 | 23 | 196 | 8.0 | 19.3 | 0.00 | 0.43 | 0.43 | 78 | 1008.3 |
| 20260509002539 | 23 | 152 | 11.3 | 19.3 | 0.00 | 0.43 | 0.43 | 77 | 1008.2 |
| 20260509002042 | 23 | 183 | 11.3 | 22.5 | 0.00 | 0.43 | 0.43 | 77 | 1008.1 |
| 20260509001545 | 23 | 164 | 11.3 | 22.5 | 0.00 | 0.43 | 0.43 | 77 | 1008.2 |
| 20260509001039 | 23 | 176 | 12.9 | 22.5 | 0.00 | 0.43 | 0.43 | 76 | 1008.1 |
| 20260509000537 | 23 | 161 | 9.7 | 17.7 | 0.00 | 0.43 | 0.43 | 77 | 1008.2 |
| 20260509000051 | 23 | 180 | 9.7 | 19.3 | 0.00 | 0.43 | 0.43 | 77 | 1008.2 |
| 20260508235537 | 23 | 191 | 14.5 | 20.9 | 0.00 | 0.43 | 0.43 | 77 | 1008.3 |
| 20260508235038 | 23 | 176 | 12.9 | 22.5 | 0.00 | 0.43 | 0.43 | 77 | 1008.3 |
| 20260508234553 | 23 | 180 | 16.1 | 22.5 | 0.00 | 0.43 | 0.43 | 76 | 1008.5 |
| 20260508234042 | 23 | 172 | 12.9 | 20.9 | 0.00 | 0.43 | 0.43 | 77 | 1008.6 |
| 20260508233538 | 23 | 184 | 14.5 | 20.9 | 0.00 | 0.43 | 0.43 | 77 | 1008.6 |
| 20260508233051 | 23 | 164 | 14.5 | 20.9 | 0.00 | 0.43 | 0.43 | 77 | 1008.6 |
| 20260508232538 | 23 | 182 | 14.5 | 20.9 | 0.00 | 0.43 | 0.43 | 77 | 1008.7 |
| 20260508232037 | 23 | 188 | 14.5 | 24.1 | 0.00 | 0.43 | 0.43 | 78 | 1008.7 |
| 20260508231546 | 23 | 182 | 16.1 | 24.1 | 0.00 | 0.43 | 0.43 | 77 | 1008.7 |
| 20260508231037 | 23 | 191 | 16.1 | 25.7 | 0.00 | 0.43 | 0.43 | 76 | 1008.7 |
| 20260508230538 | 23 | 190 | 12.9 | 27.4 | 0.00 | 0.43 | 0.43 | 77 | 1008.7 |
| 20260508230051 | 23 | 181 | 17.7 | 27.4 | 0.00 | 0.43 | 0.43 | 76 | 1008.7 |
| 20260508225538 | 23 | 192 | 16.1 | 25.7 | 0.00 | 0.43 | 0.43 | 77 | 1008.8 |
| 20260508225037 | 23 | 190 | 17.7 | 25.7 | 0.00 | 0.43 | 0.43 | 76 | 1008.7 |
| 20260508224546 | 23 | 192 | 16.1 | 22.5 | 0.00 | 0.43 | 0.43 | 76 | 1008.8 |
| 20260508224036 | 23 | 187 | 16.1 | 20.9 | 0.00 | 0.43 | 0.43 | 76 | 1008.8 |
| 20260508223537 | 23 | 200 | 16.1 | 20.9 | 0.00 | 0.43 | 0.43 | 76 | 1008.8 |
| 20260508223047 | 23 | 198 | 14.5 | 19.3 | 0.00 | 0.43 | 0.43 | 76 | 1008.8 |
| 20260508222540 | 22 | 184 | 14.5 | 19.3 | 0.00 | 0.43 | 0.43 | 77 | 1008.8 |
| 20260508222040 | 22 | 194 | 14.5 | 20.9 | 0.00 | 0.43 | 0.43 | 77 | 1008.8 |
| 20260508221556 | 23 | 207 | 14.5 | 20.9 | 0.00 | 0.43 | 0.43 | 76 | 1008.9 |
| 20260508221040 | 23 | 190 | 11.3 | 20.9 | 0.00 | 0.43 | 0.43 | 76 | 1008.9 |
| 20260508220536 | 23 | 196 | 14.5 | 20.9 | 0.00 | 0.43 | 0.43 | 74 | 1008.8 |
| 20260508220054 | 23 | 187 | 16.1 | 22.5 | 0.00 | 0.43 | 0.43 | 74 | 1008.8 |
| 20260508215538 | 23 | 186 | 14.5 | 22.5 | 0.00 | 0.43 | 0.43 | 74 | 1008.8 |
| 20260508215042 | 23 | 184 | 12.9 | 22.5 | 0.00 | 0.43 | 0.43 | 73 | 1008.7 |
| 20260508214546 | 23 | 183 | 9.7 | 22.5 | 0.00 | 0.43 | 0.43 | 73 | 1008.7 |
| 20260508214038 | 23 | 188 | 11.3 | 24.1 | 0.00 | 0.43 | 0.43 | 73 | 1008.8 |
| 20260508213536 | 23 | 170 | 14.5 | 24.1 | 0.00 | 0.43 | 0.43 | 73 | 1008.8 |
| 20260508213049 | 23 | 164 | 14.5 | 24.1 | 0.00 | 0.43 | 0.43 | 73 | 1008.9 |
| 20260508212537 | 23 | 165 | 14.5 | 24.1 | 0.00 | 0.43 | 0.43 | 73 | 1008.8 |
| 20260508212037 | 23 | 178 | 12.9 | 24.1 | 0.00 | 0.43 | 0.43 | 72 | 1008.6 |
| 20260508211552 | 23 | 194 | 11.3 | 22.5 | 0.00 | 0.43 | 0.43 | 73 | 1008.8 |
| 20260508211040 | 23 | 187 | 9.7 | 16.1 | 0.00 | 0.43 | 0.43 | 72 | 1009.0 |
| 20260508210540 | 23 | 124 | 6.4 | 20.9 | 0.00 | 0.43 | 0.43 | 74 | 1008.9 |
| 20260508210052 | 22 | 142 | 12.9 | 24.1 | 0.00 | 0.43 | 0.43 | 73 | 1009.1 |
| 20260508205539 | 22 | 191 | 16.1 | 24.1 | 0.00 | 0.43 | 0.43 | 73 | 1009.4 |
| 20260508205036 | 23 | 175 | 12.9 | 22.5 | 0.00 | 0.43 | 0.43 | 73 | 1009.6 |
| 20260508204547 | 22 | 194 | 9.7 | 22.5 | 0.00 | 0.43 | 0.43 | 75 | 1009.6 |
| 20260508204036 | 22 | 173 | 16.1 | 27.4 | 0.00 | 0.43 | 0.43 | 77 | 1009.9 |
| 20260508203537 | 22 | 194 | 19.3 | 27.4 | 0.00 | 0.43 | 0.43 | 77 | 1010.4 |
| 20260508203050 | 22 | 196 | 19.3 | 24.1 | 0.00 | 0.43 | 0.43 | 76 | 1010.5 |
| 20260508202538 | 22 | 192 | 16.1 | 20.9 | 0.00 | 0.43 | 0.43 | 77 | 1010.6 |
| 20260508202037 | 22 | 190 | 14.5 | 17.7 | 0.00 | 0.43 | 0.43 | 78 | 1010.6 |
| 20260508201557 | 22 | 194 | 14.5 | 19.3 | 0.00 | 0.43 | 0.43 | 77 | 1010.6 |
| 20260508201040 | 22 | 200 | 14.5 | 19.3 | 0.00 | 0.43 | 0.43 | 77 | 1010.6 |
| 20260508200539 | 22 | 198 | 14.5 | 19.3 | 0.00 | 0.43 | 0.43 | 77 | 1010.6 |
| 20260508200050 | 22 | 190 | 14.5 | 20.9 | 0.00 | 0.43 | 0.43 | 77 | 1010.6 |
| 20260508195537 | 22 | 190 | 12.9 | 24.1 | 0.00 | 0.43 | 0.43 | 76 | 1010.7 |
| 20260508195040 | 22 | 200 | 16.1 | 25.7 | 0.00 | 0.43 | 0.43 | 75 | 1010.7 |
| 20260508194546 | 22 | 183 | 19.3 | 25.7 | 0.00 | 0.43 | 0.43 | 75 | 1010.7 |
| 20260508194039 | 23 | 184 | 14.5 | 20.9 | 0.00 | 0.43 | 0.43 | 78 | 1010.7 |
| 20260508193539 | 23 | 205 | 14.5 | 19.3 | 0.00 | 0.43 | 0.43 | 74 | 1010.7 |
| 20260508193048 | 23 | 198 | 14.5 | 17.7 | 0.00 | 0.43 | 0.43 | 75 | 1010.7 |
| 20260508192537 | 23 | 195 | 11.3 | 16.1 | 0.00 | 0.43 | 0.43 | 74 | 1010.8 |
| 20260508192038 | 23 | 196 | 12.9 | 16.1 | 0.00 | 0.43 | 0.43 | 76 | 1010.8 |
| 20260508191547 | 23 | 208 | 12.9 | 17.7 | 0.00 | 0.43 | 0.43 | 74 | 1010.9 |
| 20260508191038 | 23 | 216 | 9.7 | 19.3 | 0.00 | 0.43 | 0.43 | 73 | 1011.0 |
| 20260508190538 | 23 | 196 | 11.3 | 19.3 | 0.00 | 0.43 | 0.43 | 73 | 1011.0 |
| 20260508190047 | 23 | 201 | 9.7 | 14.5 | 0.00 | 0.43 | 0.43 | 74 | 1011.0 |
| 20260508185541 | 23 | 188 | 8.0 | 14.5 | 0.00 | 0.43 | 0.43 | 75 | 1010.9 |
| 20260508185040 | 23 | 218 | 8.0 | 16.1 | 0.00 | 0.43 | 0.43 | 75 | 1011.0 |
| 20260508184546 | 22 | 192 | 9.7 | 16.1 | 0.00 | 0.43 | 0.43 | 75 | 1011.0 |
| 20260508184038 | 22 | 213 | 9.7 | 14.5 | 0.00 | 0.43 | 0.43 | 74 | 1011.1 |
| 20260508183539 | 22 | 219 | 6.4 | 11.3 | 0.00 | 0.43 | 0.43 | 74 | 1011.1 |
| 20260508183055 | 22 | 223 | 6.4 | 14.5 | 0.00 | 0.43 | 0.43 | 74 | 1011.2 |
| 20260508182538 | 22 | 227 | 9.7 | 14.5 | 0.00 | 0.43 | 0.43 | 74 | 1011.3 |
| 20260508182036 | 22 | 212 | 11.3 | 14.5 | 0.00 | 0.43 | 0.43 | 76 | 1011.4 |
| 20260508181558 | 22 | 232 | 8.0 | 11.3 | 0.00 | 0.43 | 0.43 | 74 | 1011.7 |
| 20260508181039 | 21 | 217 | 6.4 | 14.5 | 0.00 | 0.43 | 0.43 | 76 | 1011.8 |
| 20260508180541 | 21 | 227 | 9.7 | 14.5 | 0.00 | 0.43 | 0.43 | 74 | 1012.0 |
| 20260508180056 | 21 | 229 | 9.7 | 14.5 | 0.00 | 0.43 | 0.43 | 74 | 1012.0 |
| 20260508175539 | 21 | 238 | 9.7 | 12.9 | 0.00 | 0.43 | 0.43 | 74 | 1012.1 |
| 20260508175037 | 21 | 238 | 8.0 | 12.9 | 0.00 | 0.43 | 0.43 | 74 | 1012.1 |
| 20260508174605 | 22 | 231 | 6.4 | 11.3 | 0.00 | 0.43 | 0.43 | 73 | 1012.2 |
| 20260508174040 | 22 | 198 | 6.4 | 16.1 | 0.00 | 0.43 | 0.43 | 71 | 1012.2 |
| 20260508173539 | 22 | 159 | 6.4 | 16.1 | 0.00 | 0.43 | 0.43 | 70 | 1012.2 |
| 20260508173054 | 21 | 192 | 6.4 | 14.5 | 0.00 | 0.43 | 0.43 | 71 | 1012.2 |
| 20260508172538 | 21 | 180 | 6.4 | 14.5 | 0.00 | 0.43 | 0.43 | 71 | 1012.2 |
| 20260508172040 | 21 | 171 | 4.8 | 14.5 | 0.00 | 0.43 | 0.43 | 70 | 1012.2 |
| 20260508171548 | 21 | 192 | 9.7 | 16.1 | 0.00 | 0.43 | 0.43 | 71 | 1012.5 |
| 20260508171041 | 21 | 186 | 9.7 | 16.1 | 0.00 | 0.43 | 0.43 | 72 | 1012.6 |
| 20260508170537 | 21 | 121 | 6.4 | 16.1 | 0.00 | 0.43 | 0.43 | 72 | 1012.8 |
| 20260508170046 | 21 | 162 | 6.4 | 16.1 | 0.00 | 0.43 | 0.43 | 71 | 1012.8 |
| 20260508165539 | 21 | 182 | 8.0 | 14.5 | 0.00 | 0.43 | 0.43 | 72 | 1013.0 |
| 20260508165042 | 20 | 152 | 8.0 | 16.1 | 0.00 | 0.43 | 0.43 | 71 | 1013.3 |
| 20260508164548 | 20 | 200 | 9.7 | 19.3 | 0.00 | 0.43 | 0.43 | 72 | 1013.4 |
| 20260508164037 | 20 | 187 | 12.9 | 19.3 | 0.00 | 0.43 | 0.43 | 72 | 1013.6 |
| 20260508163538 | 20 | 187 | 12.9 | 17.7 | 0.00 | 0.43 | 0.43 | 71 | 1013.6 |
| 20260508163052 | 20 | 173 | 11.3 | 17.7 | 0.00 | 0.43 | 0.43 | 72 | 1013.6 |
| 20260508162539 | 20 | 147 | 9.7 | 17.7 | 0.00 | 0.43 | 0.43 | 72 | 1013.7 |
| 20260508162040 | 20 | 191 | 9.7 | 16.1 | 0.00 | 0.43 | 0.43 | 72 | 1013.7 |
| 20260508161545 | 20 | 153 | 8.0 | 16.1 | 0.00 | 0.43 | 0.43 | 73 | 1013.8 |
| 20260508161038 | 20 | 178 | 8.0 | 12.9 | 0.00 | 0.43 | 0.43 | 74 | 1013.9 |
| 20260508160536 | 20 | 208 | 8.0 | 14.5 | 0.00 | 0.43 | 0.43 | 75 | 1014.0 |
| 20260508160051 | 20 | 203 | 8.0 | 17.7 | 0.00 | 0.43 | 0.43 | 74 | 1014.0 |
| 20260508155542 | 20 | 187 | 8.0 | 17.7 | 0.00 | 0.43 | 0.43 | 73 | 1014.0 |
| 20260508155040 | 19 | 193 | 8.0 | 16.1 | 0.00 | 0.43 | 0.43 | 74 | 1014.1 |
| 20260508154551 | 19 | 188 | 9.7 | 16.1 | 0.00 | 0.43 | 0.43 | 74 | 1014.2 |
| 20260508154039 | 19 | 178 | 9.7 | 17.7 | 0.00 | 0.43 | 0.43 | 74 | 1014.4 |
| 20260508153540 | 19 | 145 | 4.8 | 17.7 | 0.00 | 0.43 | 0.43 | 75 | 1014.2 |
| 20260508153054 | 19 | 163 | 6.4 | 14.5 | 0.00 | 0.43 | 0.43 | 75 | 1014.3 |
| 20260508152539 | 19 | 157 | 8.0 | 14.5 | 0.00 | 0.43 | 0.43 | 74 | 1014.3 |
| 20260508152039 | 19 | 150 | 4.8 | 17.7 | 0.00 | 0.43 | 0.43 | 75 | 1014.3 |
| 20260508151555 | 18 | 153 | 6.4 | 17.7 | 0.00 | 0.43 | 0.43 | 75 | 1014.4 |
| 20260508151039 | 18 | 173 | 11.3 | 19.3 | 0.00 | 0.43 | 0.43 | 76 | 1014.5 |
| 20260508150538 | 18 | 190 | 12.9 | 19.3 | 0.00 | 0.43 | 0.43 | 77 | 1014.5 |
| 20260508150052 | 18 | 149 | 8.0 | 16.1 | 0.00 | 0.43 | 0.43 | 80 | 1014.4 |
| 20260508145539 | 18 | 180 | 3.2 | 8.0 | 0.00 | 0.43 | 0.43 | 82 | 1014.3 |
| 20260508145042 | 18 | 190 | 4.8 | 8.0 | 0.00 | 0.43 | 0.43 | 81 | 1014.4 |
| 20260508144550 | 18 | 200 | 4.8 | 8.0 | 0.00 | 0.43 | 0.43 | 81 | 1014.6 |
| 20260508144038 | 18 | 205 | 3.2 | 8.0 | 0.00 | 0.43 | 0.43 | 82 | 1014.6 |
| 20260508143539 | 18 | 171 | 3.2 | 6.4 | 0.00 | 0.43 | 0.43 | 82 | 1014.5 |
| 20260508143048 | 17 | 198 | 3.2 | 8.0 | 0.00 | 0.43 | 0.43 | 82 | 1014.7 |
| 20260508142540 | 17 | 200 | 3.2 | 11.3 | 0.00 | 0.43 | 0.43 | 83 | 1015.0 |
| 20260508142040 | 17 | 160 | 6.4 | 11.3 | 0.00 | 0.43 | 0.43 | 83 | 1014.7 |
| 20260508141612 | 17 | 181 | 3.2 | 8.0 | 0.00 | 0.43 | 0.43 | 84 | 1015.0 |
| 20260508141039 | 17 | 0 | 1.6 | 8.0 | 0.00 | 0.43 | 0.43 | 84 | 1014.8 |
| 20260508140539 | 17 | 134 | 1.6 | 6.4 | 0.00 | 0.43 | 0.43 | 85 | 1014.7 |
| 20260508140051 | 17 | 136 | 1.6 | 6.4 | 0.00 | 0.43 | 0.43 | 86 | 1014.7 |
| 20260508135540 | 17 | 165 | 1.6 | 8.0 | 0.00 | 0.43 | 0.43 | 86 | 1014.7 |
| 20260508135040 | 17 | 144 | 1.6 | 8.0 | 0.00 | 0.43 | 0.43 | 87 | 1014.8 |
| 20260508134556 | 17 | 124 | 3.2 | 8.0 | 0.00 | 0.43 | 0.43 | 87 | 1014.7 |
| 20260508134039 | 17 | 134 | 0.0 | 4.8 | 0.00 | 0.43 | 0.43 | 88 | 1014.7 |
| 20260508133538 | 16 | 0 | 0.0 | 6.4 | 0.00 | 0.43 | 0.43 | 88 | 1014.7 |
| 20260508133055 | 16 | 138 | 0.0 | 6.4 | 0.00 | 0.43 | 0.43 | 88 | 1014.9 |
| 20260508132542 | 16 | 0 | 0.0 | 11.3 | 0.00 | 0.43 | 0.43 | 88 | 1014.7 |
| 20260508132040 | 16 | 0 | 3.2 | 12.9 | 0.00 | 0.43 | 0.43 | 88 | 1014.6 |
| 20260508131548 | 16 | 133 | 4.8 | 12.9 | 0.00 | 0.43 | 0.43 | 88 | 1014.9 |
| 20260508131038 | 16 | 144 | 4.8 | 16.1 | 0.00 | 0.43 | 0.43 | 88 | 1014.8 |
| 20260508130541 | 16 | 145 | 4.8 | 16.1 | 0.00 | 0.43 | 0.43 | 89 | 1014.5 |
| 20260508130049 | 16 | 186 | 6.4 | 14.5 | 0.00 | 0.43 | 0.43 | 89 | 1014.7 |
| 20260508125540 | 16 | 171 | 4.8 | 14.5 | 0.00 | 0.43 | 0.43 | 90 | 1014.8 |
| 20260508125040 | 16 | 128 | 3.2 | 9.7 | 0.00 | 0.43 | 0.43 | 90 | 1014.7 |
| 20260508124556 | 16 | 146 | 3.2 | 9.7 | 0.00 | 0.43 | 0.43 | 90 | 1014.7 |
| 20260508124041 | 16 | 138 | 3.2 | 6.4 | 0.00 | 0.43 | 0.43 | 90 | 1014.9 |
| 20260508123538 | 16 | 144 | 3.2 | 8.0 | 0.00 | 0.43 | 0.43 | 90 | 1015.0 |
| 20260508123050 | 16 | 166 | 0.0 | 9.7 | 0.00 | 0.43 | 0.43 | 90 | 1014.9 |
| 20260508122540 | 16 | 0 | 3.2 | 14.5 | 0.00 | 0.43 | 0.43 | 90 | 1014.5 |
| 20260508122038 | 16 | 175 | 9.7 | 14.5 | 0.00 | 0.43 | 0.43 | 91 | 1015.2 |
| 20260508121559 | 16 | 225 | 6.4 | 11.3 | 0.00 | 0.43 | 0.43 | 92 | 1015.7 |
| 20260508121040 | 16 | 5 | 0.0 | 4.8 | 0.00 | 0.43 | 0.43 | 91 | 1015.1 |
| 20260508120538 | 15 | 0 | 0.0 | 4.8 | 0.00 | 0.43 | 0.43 | 91 | 1015.0 |
| 20260508120052 | 15 | 46 | 3.2 | 4.8 | 0.00 | 0.43 | 0.43 | 91 | 1015.0 |
| 20260508115538 | 15 | 78 | 0.0 | 8.0 | 0.00 | 0.43 | 0.43 | 91 | 1015.1 |
| 20260508115038 | 15 | 0 | 0.0 | 8.0 | 0.00 | 0.43 | 0.43 | 91 | 1015.0 |
| 20260508114554 | 15 | 153 | 4.8 | 8.0 | 0.00 | 0.43 | 0.43 | 91 | 1014.8 |
| 20260508114041 | 15 | 128 | 0.0 | 4.8 | 0.00 | 0.43 | 0.43 | 91 | 1014.7 |
| 20260508113540 | 15 | 0 | 0.0 | 6.4 | 0.00 | 0.43 | 0.43 | 91 | 1015.0 |
| 20260508113107 | 15 | 0 | 0.0 | 14.5 | 0.00 | 0.43 | 0.43 | 91 | 1014.7 |
| 20260508112540 | 15 | 0 | 3.2 | 14.5 | 0.00 | 0.43 | 0.43 | 90 | 1014.6 |
| 20260508112040 | 15 | 148 | 6.4 | 11.3 | 0.00 | 0.43 | 0.43 | 90 | 1014.3 |
| 20260508111551 | 16 | 128 | 6.4 | 14.5 | 0.00 | 0.43 | 0.43 | 90 | 1014.3 |
| 20260508111042 | 16 | 123 | 8.0 | 14.5 | 0.20 | 0.43 | 0.43 | 90 | 1014.4 |
| 20260508110538 | 16 | 162 | 3.2 | 12.9 | 0.25 | 0.43 | 0.43 | 90 | 1014.7 |
| 20260508110057 | 16 | 135 | 6.4 | 12.9 | 0.25 | 0.43 | 0.43 | 90 | 1014.2 |
| 20260508105538 | 16 | 140 | 8.0 | 14.5 | 0.25 | 0.43 | 0.43 | 89 | 1014.3 |
| 20260508105038 | 16 | 120 | 6.4 | 14.5 | 0.25 | 0.43 | 0.43 | 88 | 1014.2 |
| 20260508104552 | 16 | 136 | 6.4 | 12.9 | 0.25 | 0.43 | 0.43 | 88 | 1014.5 |
| 20260508104038 | 16 | 151 | 8.0 | 12.9 | 0.25 | 0.43 | 0.43 | 88 | 1015.2 |
| 20260508103539 | 16 | 229 | 6.4 | 16.1 | 0.25 | 0.43 | 0.43 | 87 | 1015.6 |
| 20260508103052 | 16 | 234 | 4.8 | 16.1 | 0.25 | 0.43 | 0.43 | 87 | 1015.2 |
| 20260508102538 | 16 | 186 | 11.3 | 16.1 | 0.25 | 0.43 | 0.43 | 86 | 1014.7 |
| 20260508102043 | 17 | 127 | 8.0 | 16.1 | 0.25 | 0.43 | 0.43 | 85 | 1014.1 |